MERAH PUTIH 2

Last updated on Mon Oct 20 2025 00:02:51 GMT+0000 (Coordinated Universal Time)

1 58995U 24035A 25292.28967733 -.00000360 00000+0 00000+0 0 9993 2 58995 0.0188 140.8766 0001398 77.5138 26.8830 1.00272448 6178
UTC large
Height (km)
Speed (km/s)
/
Latitude / Longitude
Inclination (degrees)
Orbital Period (minutes)
Azimuth
Elevation
Range (km)
Doppler Factor

Next 0 passes for location: London (51.5072 / 0.1276)

Sorry there are no passes over London.